TimeCST,TemperatureF,Dew PointF,Humidity,Sea Level PressureIn,VisibilityMPH,Wind Direction,Wind SpeedMPH,Gust SpeedMPH,PrecipitationIn,Events,Conditions,WindDirDegrees,DateUTC
12:53 AM,64.9,57.9,78,29.98,10.0,South,9.2,-,N/A,,Clear,190,2012-12-03 06:53:00
1:53 AM,64.0,57.9,80,29.98,10.0,South,11.5,-,N/A,,Clear,180,2012-12-03 07:53:00
2:53 AM,64.0,57.9,80,29.98,9.0,South,9.2,17.3,N/A,,Clear,170,2012-12-03 08:53:00
3:53 AM,63.0,57.9,84,29.98,10.0,South,8.1,-,N/A,,Clear,180,2012-12-03 09:53:00
4:53 AM,63.0,57.9,84,29.96,10.0,South,10.4,-,N/A,,Clear,180,2012-12-03 10:53:00
5:53 AM,63.0,57.9,84,29.97,10.0,South,11.5,-,N/A,,Partly Cloudy,180,2012-12-03 11:53:00
6:53 AM,64.0,57.9,80,29.96,10.0,South,10.4,20.7,N/A,,Partly Cloudy,180,2012-12-03 12:53:00
7:53 AM,63.0,57.0,81,29.97,10.0,South,18.4,21.9,N/A,,Clear,180,2012-12-03 13:53:00
8:53 AM,64.0,55.9,75,29.97,10.0,South,12.7,25.3,N/A,,Clear,190,2012-12-03 14:53:00
9:53 AM,66.0,55.0,68,29.98,10.0,South,16.1,28.8,N/A,,Clear,180,2012-12-03 15:53:00
10:53 AM,68.0,54.0,61,29.98,10.0,South,18.4,27.6,N/A,,Clear,190,2012-12-03 16:53:00
11:53 AM,72.0,53.1,51,29.94,10.0,SSW,17.3,31.1,N/A,,Clear,200,2012-12-03 17:53:00
12:53 PM,73.0,52.0,48,29.91,10.0,South,20.7,31.1,N/A,,Clear,190,2012-12-03 18:53:00
1:53 PM,73.0,53.1,49,29.88,10.0,South,15.0,27.6,N/A,,Clear,180,2012-12-03 19:53:00
2:53 PM,73.0,53.1,49,29.88,10.0,South,15.0,25.3,N/A,,Clear,170,2012-12-03 20:53:00
3:53 PM,71.1,53.1,53,29.88,10.0,South,12.7,25.3,N/A,,Partly Cloudy,180,2012-12-03 21:53:00
4:53 PM,69.1,54.0,58,29.90,10.0,South,10.4,-,N/A,,Clear,180,2012-12-03 22:53:00
5:53 PM,66.9,54.0,63,29.91,10.0,South,10.4,-,N/A,,Clear,180,2012-12-03 23:53:00
6:53 PM,66.0,55.9,70,29.94,10.0,South,6.9,-,N/A,,Partly Cloudy,180,2012-12-04 00:53:00
7:53 PM,66.0,57.0,73,29.96,10.0,South,10.4,-,N/A,,Partly Cloudy,180,2012-12-04 01:53:00
8:53 PM,64.9,57.0,75,29.98,10.0,South,8.1,-,N/A,,Clear,190,2012-12-04 02:53:00
9:53 PM,64.0,57.0,78,29.97,10.0,South,11.5,-,N/A,,Partly Cloudy,180,2012-12-04 03:53:00
10:53 PM,63.0,57.0,81,29.95,10.0,South,12.7,-,N/A,,Clear,180,2012-12-04 04:53:00
11:53 PM,63.0,57.0,81,29.95,10.0,South,13.8,18.4,N/A,,Clear,180,2012-12-04 05:53:00